Location: Bruderhein
(53.8035°N, 112.9265°W)
Time: 06:49:46
(UTC+00:00)

RS-44 - Visible Passes

Search period start: 01 April 2023 00:00
Search period end: 11 April 2023 00:00
Orbit: 1174 x 1511 km, 82.5° (Epoch: 31 March)

Date Brightness Start Highest point End Pass type
(mag) Time Alt. Az. Time Alt. Az. Time Alt. Az.
01 Apr ? 05:37:33 10° N 05:41:43 14° NE 05:46:00 10° ENE visible
01 Apr ? 07:30:01 10° N 07:37:45 44° ENE 07:40:49 33° ESE visible
01 Apr ? 09:23:33 10° NNW 09:31:31 58° W 09:33:24 49° SW visible
01 Apr ? 11:19:01 10° NW 11:23:18 15° WNW 11:26:00 13° W visible
02 Apr ? 06:00:51 10° N 06:06:28 20° NE 06:11:49 11° E visible
02 Apr ? 07:53:43 10° N 08:01:50 61° ENE 08:04:24 45° SE visible
02 Apr ? 09:47:33 10° NNW 09:55:05 42° W 09:56:59 37° WSW visible
03 Apr ? 06:24:20 10° N 06:31:02 26° NE 06:35:25 18° E visible
03 Apr ? 08:17:30 10° N 08:25:48 82° ENE 08:27:59 56° SSE visible
03 Apr ? 10:11:41 10° NNW 10:18:30 30° W 10:20:35 27° WSW visible
04 Apr ? 04:55:57 10° NNE 04:58:52 12° NNE 05:01:49 10° NE visible
04 Apr ? 06:47:57 10° N 06:55:25 36° ENE 06:59:01 26° ESE visible
04 Apr ? 08:41:21 10° NNW 08:49:36 74° W 08:51:36 56° SSW visible
04 Apr ? 10:36:05 10° NNW 10:41:46 21° WNW 10:44:11 18° W visible
05 Apr ? 05:18:58 10° N 05:23:44 16° NE 05:28:40 10° ENE visible
05 Apr ? 07:11:38 10° N 07:19:38 49° ENE 07:22:38 36° ESE visible
05 Apr ? 09:05:16 10° NNW 09:13:16 54° W 09:15:13 46° SW visible
05 Apr ? 11:01:02 10° NW 11:04:52 14° WNW 11:07:49 12° W visible
06 Apr ? 05:42:22 10° N 05:48:28 22° NE 05:53:40 13° E visible
06 Apr ? 07:35:22 10° N 07:43:42 66° ENE 07:46:16 48° SE visible
06 Apr ? 09:29:17 10° NNW 09:36:48 38° W 09:38:51 34° WSW visible
07 Apr ? 04:15:41 10° NNE 04:15:54 10° NNE 04:16:08 10° NNE visible
07 Apr ? 06:05:56 10° N 06:12:59 29° NE 06:17:19 20° E visible
07 Apr ? 07:59:10 10° NNW 08:07:37 89° ENE 08:09:54 56° SSE visible
07 Apr ? 09:53:29 10° NNW 10:00:10 27° WNW 10:02:30 24° WSW visible
08 Apr ? 04:37:13 10° N 04:40:56 13° NE 04:44:43 10° ENE visible
08 Apr ? 06:29:35 10° N 06:37:20 39° ENE 06:40:59 28° ESE visible
08 Apr ? 08:23:03 10° NNW 08:31:23 68° W 08:33:34 52° SSW visible
08 Apr ? 10:17:58 10° NNW 10:23:24 19° WNW 10:26:09 16° W visible
09 Apr ? 05:00:28 10° N 05:05:47 18° NE 05:11:16 10° E visible
09 Apr ? 06:53:17 10° N 07:01:32 53° ENE 07:04:38 38° ESE visible
09 Apr ? 08:47:00 10° NNW 08:55:01 49° W 08:57:14 42° SW visible
09 Apr ? 10:43:10 10° NW 10:46:27 13° WNW 10:49:46 10° W visible
10 Apr ? 05:23:57 10° N 05:30:28 24° NE 05:35:44 14° E visible
10 Apr ? 07:17:04 10° N 07:25:33 72° ENE 07:28:19 48° SE visible
10 Apr ? 09:11:04 10° NNW 09:18:30 35° W 09:20:54 31° WSW visible
